Tracking 18987 objects as of 25-Feb-2018
HD Live streaming from Space Station
objects crossing your sky now

SL-12 DEB

Track SL-12 DEB now!
10-day predictions


NORAD ID: 39801
Int'l Code: 2008-046N
Perigee: 355.4 km
Apogee: 18,317.6 km
Inclination: 64.9 °
Period: 326.5 minutes
Semi major axis: 15707 km
RCS: 0.1137 m2 (medium)
Launch date: September 25, 2008
Source: Commonwealth of Independent States (former USSR) (CIS)
Launch site: TYURATAM MISSILE AND SPACE COMPLEX (TTMTR)

Note: This is SATELLITE DEBRIS
aabbcc
Your satellite tracking list
Your tracking list is empty




NASA's NSSDC Master Catalog

Two Line Element Set (TLE):
1 39801U 08046N   18055.84702993 +.00000946 +00000-0 +44634-3 0  9993
2 39801 064.9402 346.2800 5717704 028.9529 353.2758 04.41004525060573
Source of the keplerian elements: AFSPC